User: anonymous   Login
Location: Edoum�
(0.9447°N, 10.6482°E)
Time: 02:31:51
(UTC+00:00)
Language:

Ariane 3 Deb - Orbit

View from above orbital plane
View from above orbital plane
View from above satellite
View from above satellite

Ground track
Ground track

The orbit data is extracted from the following two-line orbital elements,

1 18571U 87078F   20221.14173345  .00014060  00000-0  72893-3 0  9990
2 18571   6.8940  26.8462 5808475 284.2718  20.6910  4.39373283332815
Epoch (UTC): 08 August 2020 03:24:05
Eccentricity: 0.5808475
inclination: 6.8940°
perigee height: 222 km
apogee height: 18514 km
right ascension of ascending node: 26.8462°
argument of perigee: 284.2718°
revolutions per day: 4.39373283
mean anomaly at epoch: 20.6910°
orbit number at epoch: 33281

The dashed part of the orbit path shows where the satellite is in the earth's shadow,  

DLR